Погода в Называевске

Погода в Называевске : погода сейчас, прогноз погоды и архив. Всё, что Вы хотите узнать о погоде в Называевске!

Хотите узнать прогноз погоды в Называевске? Тогда Вам сюда: Погода в Называевске

Поиск расширенной информации на нашем сайте:

Другие новости

Новости СМИ2

Главная страница сайта

Новости сайта

03.07.2017

Напоминаем, что на нашем специализированном сайте Метеоцентр.Азия вы можете получить высокодетализированные автоматические прогнозы погоды по пунктам России, СНГ и мира в авиационном формате (включающие направление и скорость ветра, видимость, явления погоды, количество и форму облачности, нижнюю и верхнюю границу облачности).


Погода в Называевске - сегодня

Время (UTC), дата Ветер
(°,м/с) 
Видим.   Явления Облачность Т
(°С)
Тd
(°С)
f(%) Тe
(°С)
Pmin
(гПа)
dP
(гПа)
Po
(мм)
O2
(г/м3)
Тmin Tmax R s Состояние
почвы
21 15.02.18 330 (СЗ) 20000 м    ясно 
-18 -20.9 78 -22  1029.9  1.6  760  329           
00 16.02.18 310 (СЗ) 20000 м    ясно 
-19.3 -21.6 82 -22  1031.8  1.8  761  332           
03 16.02.18 320 (СЗ) 40000 м    8/0 верхняя 
[Ci sp]
-21.5 -24.5 77 -22  1034  763  335  -24.1      25  неравномерный
сухой снег
100% 
06 16.02.18 350 (С) 40000 м    ясно 
-16.1 -19.1 78 -20  1035.6  1.9  764  329  -24.6         
09 16.02.18 350 (С) 40000 м    ясно 
-11.7 -17.7 61 -14  1036.3  0.9  765  323           
12 16.02.18 290 (З) 40000 м    4/0 верхняя 
[Ci sp]
-12.4 -18.3 61 -12  1037.4  765  325           
15 16.02.18 280 (З) 20000 м    ясно 
-21 -23.7 79 -21  1039.1  1.1  766  336    -10.9       
18 16.02.18 250 (З) 20000 м    ясно 
-23.8 -27 75 -24  1039.8  0.5  767  340           
21 16.02.18 230 (ЮЗ) 20000 м    ясно 
-24.6 -27.9 74 -25  1040.2  0.3  767  341           
00 17.02.18 тихо ()   20000 м    ясно 
-26.6 -30.3 71 -27  1040.6  0.3  767  344           
03 17.02.18 220 (ЮЗ) 4500 м  дымка  8/0 верхняя 
[Ci sp]
-26.8 -30.4 72 -27  1040.9  0.2  767  345  -28.2      25  неравномерный
сухой снег
100% 
06 17.02.18 210 (ЮЗ) 30000 м    3/0 верхняя 
[Ci fib]
-16.7 -19.3 80 -17  1040.1  0.1  767  331           
09 17.02.18 230 (ЮЗ) 40000 м    ясно 
-10.3 -15.3 67 -12  1039.1  -0.5  767  322           
12 17.02.18 200 (Ю) 30000 м    ясно 
-10.8 -15.1 71 -13  1038.2  -0.8  766  323           
15 17.02.18 220 (ЮЗ) 10 км    ясно 
-14.8 -17.1 83 -18  1038.1  -0.3  766  328    -9.7       
18 17.02.18 210 (ЮЗ) 10 км    ясно 
-15.3 -17.5 83 -18  1037.3  -0.8  765  328           
21 17.02.18 230 (ЮЗ) 4000 м  дымка [диам. изморози 1 мм]  ясно 
-14.9 -17.1 83 -19  1036.2  -1.1  764  327           
00 18.02.18 220 (ЮЗ) 4000 м  дымка [диам. изморози 4 мм]  ясно 
-16.3 -18.6 82 -20  1035.6  -0.7  764  329           
03 18.02.18 240 (ЮЗ) 8000 м  дымка [диам. изморози 4 мм]  4/0 средняя 
[Ac lent]
-15.1 -17.4 83 -20  1035.1  -0.3  764  327  -16.5      25  неравномерный
сухой снег
100% 
09 18.02.18 230 (ЮЗ) 40000 м  в посл. час снег  8/0 средняя 
[Ac As]
-9.3 -12.5 77 -12  1033.9  -0.6  763  319           
12 18.02.18 240 (ЮЗ) 40000 м  {снег}  3/0 средняя 
[Ac lent]
-8.8 -13.1 71 -12  1033.8  763  319           
15 18.02.18 240 (ЮЗ) 20000 м    ясно 
-10.6 -14.3 74 -14  1034.1  0.2  763  321    -8.1  0.3     
18 18.02.18 250 (З) 20000 м    9/0 средняя 
[Ac As]
-10.1 -13.6 75 -13  1033.9  -0.2  763  320           
21 18.02.18 250 (З) 20000 м    ясно 
-11.9 -14.6 80 -15  1034.3  0.2  763  323           
00 19.02.18 240 (ЮЗ) 20000 м    ясно 
-13.5 -16 81 -18  1034.6  0.2  763  325           
Время (UTC), дата Ветер
(°,м/с) 
Видим.   Явления Облачность Т
(°С)
Тd
(°С)
f(%) Тe
(°С)
Pmin
(гПа)
dP
(гПа)
Po
(мм)
O2
(г/м3)
Тmin Tmax R s Состояние
почвы

Для получения пояснительной информации подведите курсор к названию столбца.

ПОГОДА в Называевске - архив

Всё, что Вы хотите узнать о погоде в Называевске - удобно и подробно!

Выберите нужную дату (начиная с 1 января 2015* года) и нажмите кнопку "Найти".
Будут отображены архивные сводки погоды по пункту Называевск, начиная с указанной даты.


Отображать данные в формате CSV (для использования в таблицах Excel)


Внимание! Наш архив погоды предназначен исключительно для личного некоммерческого использования в познавательных целях. Если Вам необходимы официальные справки о состоянии погоды (для производственных, юридических, коммерческих и т.п. целей), обращайтесь в органы Росгидромета.

*Примечание: данная дата относится к архиву по метеостанциям СССР (Россия, СНГ, Балтия).
Архив по метеостанциям Зарубежной Европы и Азии (кроме Китая) хранится 10 дней, по другим регионам земного шара (Китай, Африка, Америка, Австралия, Океания) - 1 день.

Называевск - район местоположения метеостанции


Название, широта, долгота, высота метеостанции:
Называевск 55.6°ш. 71.4°д. 126 м над ур. моря [Российская Федерация]

Дополнительная информация

В oтличие oт бoльшинства пoгoдных сайтoв мы публикуем пoдрoбную метеoинфoрмацию в детальнoм прoфессиoнальнoм фoрмате.

Характеристики температуры и влажнoсти вoздуха измеряются на высoте 2 м в тени вдали oт зданий и деревьев.
Скoрoсть ветра измеряется на высoте 10 м (на урoвне рoста челoвека скoрoсть ветра ниже в 1.5-2 раза). Если метеoстанция нахoдится в гoрoде или в лесу, тo скoрoсть ветра занижена на 2-4 м/с пo сравнению с oткрытым местoм. Скoрoсть ветра над акватoриями крупных рек и oзёр, а также на вершинах хoлмoв на 2-5 м/с выше, чем в oбычных услoвиях.
Атмoсфернoе давление в разных тoчках местнoсти мoжет значительнo oтличаться oт давления на метеoстанции, в зависимoсти oт услoвий рельефа (при пoдъёме на 10 м давление пoнижается примернo на 1 мм рт.ст.).